Stations météo

Publicité
Le Talut, France (7207): Température de l'air & dewpoint: 03.07.2020 01:00:00 - 09.07.2020 01:00:00 (CEST)Le Talut, France (7207): Vitesse du vent & gusts: 03.07.2020 01:00:00 - 09.07.2020 01:00:00 (CEST)Le Talut, France (7207): Direction du vent: 03.07.2020 01:00:00 - 09.07.2020 01:00:00 (CEST)Le Talut, France (7207): reduced air pressure: 03.07.2020 01:00:00 - 09.07.2020 01:00:00 (CEST)Le Talut, France (7207): visibility: 03.07.2020 01:00:00 - 09.07.2020 01:00:00 (CEST)Le Talut, France (7207): Quantités de précipitations: 03.07.2020 01:00:00 - 09.07.2020 01:00:00 (CEST)
Date & Time tt [°C] td [°C] ff [km/h] ff [knt] fx [km/h] fx [knt] dd ppp [hPa] vv [km] rr [mm]
09.07.2020 01:00:00 - - - - - - - - - -
09.07.2020 00:00:00 16,9 14,9 21 11 34 18 WNW 1019,6 - 0,0
08.07.2020 23:00:00 17,2 15,0 17 9 29 15 WNW 1019,6 - 0,0
08.07.2020 22:00:00 17,5 14,9 18 10 31 17 WNW 1019,0 - 0,0
08.07.2020 21:00:00 18,2 15,1 16 8 32 18 WNW 1019,1 - 0,0
08.07.2020 20:00:00 19,0 15,3 16 9 31 17 WNW 1019,3 20 0,0
08.07.2020 19:00:00 20,0 15,4 16 9 28 15 WNW 1019,7 - 0,0
08.07.2020 18:00:00 19,8 11,8 13 7 27 14 W 1020,3 - 0,0
08.07.2020 17:00:00 19,9 14,5 16 8 28 15 W 1020,9 25 0,0
08.07.2020 16:00:00 20,2 13,6 17 9 24 13 W 1021,2 - 0,0
08.07.2020 15:00:00 20,7 13,6 14 8 23 12 W 1021,3 - 0,0
08.07.2020 14:00:00 20,1 11,6 13 7 22 12 W 1021,4 25 0,0
08.07.2020 13:00:00 19,2 11,2 10 6 17 9 W 1021,4 - 0,0
08.07.2020 12:00:00 19,1 13,3 10 6 19 11 W 1021,3 - 0,2
08.07.2020 11:00:00 18,6 14,3 10 5 17 9 W 1021,3 25 0,0
08.07.2020 10:00:00 18,2 14,1 10 5 16 9 W 1021,0 - 0,0
08.07.2020 09:00:00 18,0 13,3 3 1 7 4 SW 1021,0 - 0,0
08.07.2020 08:00:00 16,6 13,9 5 3 9 5 NE 1020,6 25 0,0
08.07.2020 07:00:00 14,1 12,3 6 4 17 9 NE 1020,6 - 0,0
08.07.2020 06:00:00 14,0 12,2 15 8 18 10 NNE 1020,4 - 0,0
08.07.2020 05:00:00 14,7 12,7 7 4 21 12 N 1020,6 - 0,0
08.07.2020 04:00:00 15,3 13,0 19 11 29 16 NNE 1020,5 - 0,0
08.07.2020 03:00:00 15,2 12,9 20 11 28 15 NNE 1021,0 - 0,0
08.07.2020 02:00:00 15,1 12,2 16 9 24 13 N 1021,5 - 0,0
08.07.2020 01:00:00 15,9 12,6 15 8 22 12 NNW 1021,6 - 0,0
08.07.2020 00:00:00 16,5 13,4 12 6 24 13 NW 1021,6 - 0,0
07.07.2020 23:00:00 16,5 13,0 15 8 27 14 NW 1021,7 - 0,0
07.07.2020 22:00:00 16,8 12,1 19 10 33 18 NW 1021,6 - 0,0
07.07.2020 21:00:00 17,5 12,6 23 12 33 18 NW 1021,8 - 0,0
07.07.2020 20:00:00 17,9 12,1 19 10 29 16 NW 1021,8 25 0,0
07.07.2020 19:00:00 18,2 12,4 14 8 26 14 WNW 1022,3 - 0,0
07.07.2020 18:00:00 17,4 10,7 16 9 27 14 NW 1022,9 - 0,0
07.07.2020 17:00:00 18,8 10,9 17 9 28 15 W 1023,2 25 0,0
07.07.2020 16:00:00 18,5 10,3 16 9 24 13 W 1023,6 - 0,0
07.07.2020 15:00:00 18,3 10,6 16 9 27 14 W 1023,9 - 0,0
07.07.2020 14:00:00 17,9 10,8 16 8 28 15 W 1024,3 25 0,0
07.07.2020 13:00:00 17,4 11,7 12 7 20 11 W 1024,5 - 0,0
07.07.2020 12:00:00 16,6 10,9 6 4 13 7 SW 1024,4 - 0,0
07.07.2020 11:00:00 16,0 10,7 7 4 15 8 SSE 1024,5 25 0,0
07.07.2020 10:00:00 16,2 10,1 7 4 17 9 E 1024,6 - 0,0
07.07.2020 09:00:00 14,9 10,5 11 6 21 11 NNE 1024,5 - 0,0
07.07.2020 08:00:00 13,3 10,8 10 6 16 9 NNE 1024,6 25 0,0
07.07.2020 07:00:00 10,7 8,8 11 6 15 8 N 1024,8 - 0,0
07.07.2020 06:00:00 10,6 8,4 11 6 16 8 N 1025,0 - 0,0
07.07.2020 05:00:00 10,6 8,4 11 6 15 8 N 1024,8 - 0,0
07.07.2020 04:00:00 11,5 8,7 9 5 20 11 N 1025,2 - 0,0
07.07.2020 03:00:00 12,3 8,9 13 7 22 12 N 1025,8 - 0,0
07.07.2020 02:00:00 12,9 8,8 13 7 25 13 N 1026,0 - 0,0
07.07.2020 01:00:00 13,7 9,3 13 7 33 18 N 1026,0 - 0,0
07.07.2020 00:00:00 15,1 9,7 22 12 35 19 N 1025,9 - 0,0
06.07.2020 23:00:00 15,6 10,4 18 10 32 17 N 1025,8 - 0,0
06.07.2020 22:00:00 16,9 12,2 25 13 43 23 NW 1025,3 - 0,0
06.07.2020 21:00:00 17,5 12,6 25 13 42 23 WNW 1025,3 - 0,0
06.07.2020 20:00:00 18,1 12,8 19 11 37 20 WNW 1025,3 22 0,0
06.07.2020 19:00:00 18,2 12,9 22 12 40 22 W 1025,6 - 0,0
06.07.2020 18:00:00 18,6 12,8 21 11 41 22 W 1025,7 - 0,0
06.07.2020 17:00:00 18,7 12,7 22 12 41 22 W 1025,8 22 0,0
06.07.2020 16:00:00 18,5 12,5 24 13 41 22 W 1025,9 - 0,0
06.07.2020 15:00:00 18,5 11,8 22 12 36 19 W 1026,2 - 0,0
06.07.2020 14:00:00 18,9 11,5 16 9 32 17 W 1026,1 22 0,0
06.07.2020 13:00:00 18,3 11,4 15 8 34 18 WNW 1026,4 - 0,0
06.07.2020 12:00:00 17,2 10,1 23 13 38 20 NW 1026,2 - 0,0
06.07.2020 11:00:00 17,2 9,9 19 10 35 19 NW 1026,0 20 0,0
06.07.2020 10:00:00 16,0 9,4 25 14 46 25 NW 1025,8 - 0,0
06.07.2020 09:00:00 16,1 9,3 23 13 41 22 NW 1025,4 - 0,0
06.07.2020 08:00:00 14,9 9,0 24 13 35 19 NW 1024,8 18 0,0
06.07.2020 07:00:00 13,5 8,1 16 9 36 20 NNW 1024,4 - 0,0
06.07.2020 06:00:00 14,0 8,2 23 13 46 25 NNW 1023,9 - 0,0
06.07.2020 05:00:00 14,6 8,8 29 16 42 23 NW 1023,6 - 0,0
06.07.2020 04:00:00 14,7 9,5 26 14 45 24 NW 1023,9 - 0,0
06.07.2020 03:00:00 14,6 9,8 20 11 44 24 NW 1023,9 - 0,0
06.07.2020 02:00:00 14,7 9,7 28 15 46 25 NW 1023,8 - 0,0
06.07.2020 01:00:00 15,1 9,9 30 16 55 30 NW 1023,5 - 0,0
06.07.2020 00:00:00 15,3 9,4 29 16 53 29 NW 1023,0 - 0,0
05.07.2020 23:00:00 15,8 9,7 33 18 49 26 NW 1022,6 - 0,0
05.07.2020 22:00:00 16,3 11,0 24 13 49 26 WNW 1021,9 - 0,0
05.07.2020 21:00:00 17,2 11,2 23 13 46 25 WNW 1021,8 - 0,0
05.07.2020 20:00:00 17,8 12,7 21 12 40 22 WNW 1021,7 20 0,0
05.07.2020 19:00:00 18,0 13,3 23 12 42 23 WNW 1021,5 - 0,0
05.07.2020 18:00:00 18,5 14,8 17 9 39 21 W 1021,6 - 0,0
05.07.2020 17:00:00 17,5 15,5 20 11 48 26 W 1021,3 - 0,0
05.07.2020 16:00:00 19,1 15,4 29 15 44 24 W 1021,3 - 0,0
05.07.2020 15:00:00 18,2 15,8 27 15 44 24 W 1021,2 - 0,0
05.07.2020 14:00:00 17,8 15,4 28 15 45 24 WSW 1021,5 7 0,0
05.07.2020 13:00:00 17,8 15,2 29 16 45 24 WSW 1021,5 - 0,0
05.07.2020 12:00:00 17,5 15,7 28 15 42 23 WSW 1021,3 - 0,0
05.07.2020 11:00:00 16,9 15,4 24 13 45 24 WSW 1021,4 7 0,0
05.07.2020 10:00:00 16,8 15,5 27 15 47 25 W 1021,1 - 0,0
05.07.2020 09:00:00 16,8 15,5 26 14 49 26 W 1020,9 - 0,0
05.07.2020 08:00:00 16,5 15,2 27 15 49 26 WSW 1020,5 - 0,0
05.07.2020 07:00:00 16,7 15,6 24 13 47 26 WSW 1020,2 - 0,0
05.07.2020 06:00:00 16,8 15,7 31 17 49 27 WSW 1020,1 - 0,0
05.07.2020 05:00:00 16,7 15,4 32 17 50 27 WSW 1020,6 - 0,0
05.07.2020 04:00:00 16,8 15,5 29 16 45 25 WSW 1020,8 - 0,0
05.07.2020 03:00:00 16,7 15,6 31 17 52 28 WSW 1021,2 - 0,0
05.07.2020 02:00:00 16,8 15,5 30 16 46 25 WSW 1021,5 - 0,0
05.07.2020 01:00:00 16,9 15,8 30 16 48 26 WSW 1021,6 - 0,0
05.07.2020 00:00:00 17,2 16,1 26 14 42 23 WSW 1021,6 - 0,0
04.07.2020 23:00:00 17,2 15,9 29 16 42 23 WSW 1021,3 - 0,0
04.07.2020 22:00:00 17,4 16,1 24 13 47 25 WSW 1020,9 - 0,0
04.07.2020 21:00:00 17,4 16,1 28 15 54 29 W 1020,9 - 0,0
04.07.2020 20:00:00 17,6 16,5 39 21 57 31 WSW 1020,9 - 0,0
04.07.2020 19:00:00 17,8 16,7 34 19 54 29 WSW 1020,8 - 0,0
04.07.2020 18:00:00 17,8 16,7 33 18 58 31 WSW 1021,0 - 0,0
04.07.2020 17:00:00 17,9 16,6 37 20 56 31 WSW 1021,3 - 0,0
04.07.2020 16:00:00 17,9 16,6 33 18 61 33 WSW 1021,2 - 0,0
04.07.2020 15:00:00 17,8 16,3 32 18 59 32 SW 1021,2 - 0,0
04.07.2020 14:00:00 17,8 16,1 31 17 55 30 SW 1021,3 - 0,0
04.07.2020 13:00:00 17,6 16,1 40 21 59 32 SW 1021,1 - 0,0
04.07.2020 12:00:00 17,7 16,0 40 22 60 33 SW 1021,1 - 0,0
04.07.2020 11:00:00 17,4 16,1 36 20 61 33 SW 1021,0 6 0,0
04.07.2020 10:00:00 17,2 15,5 35 19 60 32 SW 1020,8 - 0,0
04.07.2020 09:00:00 17,0 15,3 37 20 58 32 SW 1020,7 - 0,0
04.07.2020 08:00:00 17,1 14,9 34 18 58 31 SW 1020,8 8 0,0
04.07.2020 07:00:00 17,1 14,4 32 18 56 30 SW 1020,7 - 0,0
04.07.2020 06:00:00 16,9 14,0 33 18 54 29 SW 1020,6 - 0,0
04.07.2020 05:00:00 17,0 13,7 33 18 55 30 SW 1021,0 - 0,0
04.07.2020 04:00:00 16,9 13,4 29 16 50 27 SW 1021,4 - 0,0
04.07.2020 03:00:00 16,9 13,0 29 16 53 29 SW 1022,0 - 0,0
04.07.2020 02:00:00 16,8 12,7 28 15 54 29 SW 1022,2 - 0,0
04.07.2020 01:00:00 16,7 12,6 26 14 47 26 WSW 1022,4 - 0,0
04.07.2020 00:00:00 16,7 11,8 29 16 49 26 WSW 1022,9 - 0,0
03.07.2020 23:00:00 16,6 11,5 29 16 45 24 WSW 1022,9 - 0,0
03.07.2020 22:00:00 16,7 11,6 26 14 44 24 WSW 1022,5 - 0,0
03.07.2020 21:00:00 17,4 11,0 26 14 48 26 WSW 1022,8 - 0,0
03.07.2020 20:00:00 17,0 11,7 27 15 45 25 WSW 1022,8 25 0,0
03.07.2020 19:00:00 17,3 11,3 27 15 44 24 WSW 1023,0 - 0,0
03.07.2020 18:00:00 17,6 11,8 24 13 39 21 WSW 1023,2 - 0,0
03.07.2020 17:00:00 18,3 11,4 21 12 34 19 WSW 1023,7 25 0,0
03.07.2020 16:00:00 18,6 12,1 22 12 38 20 WSW 1023,7 - 0,0
03.07.2020 15:00:00 17,7 12,4 22 12 37 20 WSW 1023,8 - 0,0
03.07.2020 14:00:00 18,0 12,2 18 10 30 16 WSW 1023,9 - 0,0
03.07.2020 13:00:00 18,1 11,9 17 9 32 18 WSW 1024,0 - 0,0
03.07.2020 12:00:00 17,8 12,3 15 8 27 15 WSW 1023,5 - 0,0
03.07.2020 11:00:00 18,3 12,3 14 8 25 14 W 1023,3 - 0,0
03.07.2020 10:00:00 17,5 12,0 16 9 25 14 W 1023,2 - 0,0
03.07.2020 09:00:00 17,0 11,7 18 10 30 16 W 1023,1 - 0,0
03.07.2020 08:00:00 16,4 11,3 18 10 29 16 W 1022,9 25 0,0
03.07.2020 07:00:00 15,7 10,9 16 8 29 16 W 1022,6 - 0,0
03.07.2020 06:00:00 15,2 10,8 10 5 23 12 W 1022,4 - 0,0
03.07.2020 05:00:00 15,3 11,3 14 8 24 13 W 1022,3 - 0,0
03.07.2020 04:00:00 14,9 10,9 10 5 22 12 WNW 1022,4 - 0,0
03.07.2020 03:00:00 15,0 10,2 14 7 24 13 WNW 1022,5 - 0,0
03.07.2020 02:00:00 15,2 10,6 17 9 29 16 WNW 1022,4 - 0,0
03.07.2020 01:00:00 15,5 11,1 16 9 31 17 WNW 1022,2 - 0,0

tt = Température de l'air
td = dewpoint
ff = Vitesse du vent
fx = gusts
dd = Direction du vent
ppp = reduced air pressure
vv = visibility
rr = Quantités de précipitations

stations d'obs. à proximité